Regional Weather Roundup
Issued by NWS

Home | Current Version | Previous Version | Graphics & Text | Print | Product List | Glossary On
Versions: 1 2 3 4 5 6 7 8 9 10 11 12 13 14 15 16 17 18 19 20 21 22 23 24 25 26 27 28 29 30 31 32 33 34 35 36 37 38 39 40 41 42 43 44 45 46 47 48 49 50
597
ASUS43 KMKX 150259
RWRWI

WISCONSIN REGIONAL WEATHER ROUNDUP
NATIONAL WEATHER SERVICE MILWAUKEE/SULLIVAN WI
900 PM CST THU DEC 14 2017

NOTE: "FAIR" INDICATES FEW OR NO CLOUDS BELOW 12,000 FEET WITH NO
SIGNIFICANT WEATHER AND/OR OBSTRUCTIONS TO VISIBILITY.

WIZ001-002-006>008-014>016-023>028-150400-
NORTHWEST WISCONSIN

CITY           SKY/WX    TMP DP  RH WIND       PRES   REMARKS
SUPERIOR ARPT  CLOUDY    18  12  79 W5        29.96S WCI  11
ASHLAND        FLURRIES  18  12  77 W9        29.92F WCI   7
HAYWARD        FLURRIES  17  12  80 W5        29.91F WCI  10
SIREN          CLOUDY    19  14  80 W6        29.95F WCI  11
CUMBERLAND     FLURRIES  19  12  73 W8        29.94F WCI   9
RICE LAKE      FLURRIES  19  14  81 CALM      29.97F
CHETEK         CLOUDY    19  14  81 W6        29.96F WCI  11
LADYSMITH      LGT SNOW  19  16  88 W8        29.94F WCI   9
EAU CLAIRE     NOT AVBL
MENOMONIE      FLURRIES  22  15  75 W7        29.99F WCI  13
NEW RICHMOND   FLURRIES  20  14  78 W7        29.98F WCI  11
OSCEOLA        CLOUDY    21  16  79 W10       30.01F WCI  10
$$

WIZ003>005-009-010-017-018-150400-
NORTH CENTRAL WISCONSIN

CITY           SKY/WX    TMP DP  RH WIND       PRES   REMARKS
MANITOWISH WTR FLURRIES  15  14  95 W5        29.85F WCI   7
ARBOR VITAE    FLURRIES  17  13  86 W6        29.85F WCI   8
WOODRUFF       FLURRIES  17  13  86 W6        29.85F WCI   8
RHINELANDER    LGT SNOW  17  14  88 W8        29.86F FOG     WCI   7
EAGLE RIVER    LGT SNOW  15  12  86 W5        29.84F WCI   8
LAND O LAKES   LGT SNOW  15  13  90 CALM      29.85F
PHILLIPS       FLURRIES  15  13  92 W3        29.89S
TOMAHAWK       LGT SNOW  17  13  86 W6        29.89S WCI   8
MEDFORD        LGT SNOW  17  15  89 W8        29.90F WCI   7
MERRILL        FLURRIES  19  15  86 W7        29.91F WCI  10
$$

WIZ029-030-035-036-043>047-150400-
CENTRAL WISCONSIN

CITY           SKY/WX    TMP DP  RH WIND       PRES   REMARKS
WAUSAU         LGT SNOW  19  16  88 SW7       29.90F FOG     WCI  10
MOSINEE        LGT SNOW  19  16  86 SW6       29.92F WCI  11
MARSHFIELD     FLURRIES  20  16  84 W8        29.91F WCI  10
STEVENS POINT  CLOUDY    19  13  77 SW3       29.95F
WAUPACA        CLOUDY    24  16  71 S3        29.97F
WAUTOMA        FLURRIES  22  14  71 S7        29.97F WCI  13
WISC RAPIDS    CLOUDY    21  12  68 SW6       29.96F WCI  13
CAMP DOUGLAS   CLOUDY    23  14  67 SW6       29.96S WCI  16
$$

WIZ011>013-019>022-031-037>040-048>050-150400-
NORTHEAST WISCONSIN

CITY           SKY/WX    TMP DP  RH WIND       PRES   REMARKS
ANTIGO         LGT SNOW  17  15  93 SW7       29.88F WCI   7
SHAWANO        FLURRIES  22  17  78 CALM      29.96F
OCONTO         CLOUDY    20  16  82 SW5       29.97F WCI  14
STURGEON BAY   FLURRIES  19  15  84 SW9       29.96F WCI   8
GREEN BAY      LGT SNOW  21  15  78 SW7       29.98F WCI  12
MANITOWOC      FLURRIES  19  13  77 SW8       30.01F WCI   9
APPLETON       CLOUDY    19  14  79 SW7       29.95F WCI  10
CLINTONVILLE   CLOUDY    19  16  86 S3        29.96F
OSHKOSH        CLOUDY    21  13  71 SW5       29.98F WCI  15
$$

WIZ032>034-041-042-053>061-150400-
SOUTHWEST WISCONSIN

CITY           SKY/WX    TMP DP  RH WIND       PRES   REMARKS
LA CROSSE      CLOUDY    26  18  71 W9        30.00F WCI  17
SPARTA         CLOUDY    24  18  77 W6        29.99F WCI  17
VIROQUA        CLOUDY    23  19  85 W9        29.96F WCI  13
BOSCOBEL       CLOUDY    27  16  63 SW6       30.02F WCI  20
PRAIRIE DU CHI CLOUDY    27  16  63 W6        30.03S WCI  20
PLATTEVILLE    CLOUDY    25  17  74 SW10      30.02S WCI  14
$$

WIZ056-057-062-063-064-067-068-150400-
SOUTH CENTRAL WISCONSIN

CITY           SKY/WX    TMP DP  RH WIND       PRES   REMARKS
REEDSBURG      CLOUDY    23  13  66 S3        29.99S
BARABOO/DELLS  CLOUDY    23  13  66 SW6       29.98F WCI  15
LONE ROCK      NOT AVBL
MINERAL POINT  CLOUDY    27  19  74 SW10      29.99F WCI  17
MADISON        CLOUDY    24  14  65 SW8       30.00F WCI  15
MIDDLETON      CLOUDY    25  14  63 SW5       30.00F WCI  19
WATERTOWN      CLOUDY    20  14  76 CALM      30.01F
MONROE         CLOUDY    21  12  68 SW8       30.00F WCI  12
JANESVILLE     CLOUDY    21  12  68 W6        30.02F WCI  14
$$

WIZ051-052-058>065-066-070>072-150400-
SOUTHEAST WISCONSIN

CITY           SKY/WX    TMP DP  RH WIND       PRES   REMARKS
MILWAUKEE      CLOUDY    22  13  68 SW5       30.04F WCI  16
WAUKESHA       CLOUDY    18  10  73 S3        30.03S
MILWAUKEE/TIMM CLOUDY    19  10  68 S5        30.04S WCI  13
RACINE         CLOUDY    18  14  84 S5        30.05F WCI  11
BURLINGTON     CLOUDY    16  13  88 CALM      30.04S
KENOSHA        CLOUDY    20  12  71 S5        30.04F WCI  13
FOND DU LAC    CLOUDY    22  12  65 SW6       29.99F WCI  14
SHEBOYGAN      CLOUDY    18  13  80 SW7       30.00F WCI   9
WEST BEND      CLOUDY    18  14  86 SW3       30.01S
JUNEAU         CLOUDY    19  12  74 S3        30.01F
$$

LSZ147-162-150400-
LAKE SUPERIOR

STATION/POSITION TIME  TEMP    WIND        PRES    WAVE
                       AIR SEA DIR/SP/G            HT/PER
                 (UTC) (F)     (DEG/KT/KT) (MB)    (FT/S)
DEVILS ISLAND    0200   21     270/ 16/ 18 1013.9F
SAXON HARBOR     0240   18                 1012.9F
$$

LMZ867-665-643>646-150400-
LAKE MICHIGAN

STATION/POSITION TIME  TEMP    WIND        PRES    WAVE
                       AIR SEA DIR/SP/G            HT/PER
                 (UTC) (F)     (DEG/KT/KT) (MB)    (FT/S)
NORTHPORT PIER   0240   22     280/  4/ 15 1014.2F
KEWAUNEE LAKESHO 0230   19     210/  9/ 10 1014.9F
SHEBOYGAN LAKESH 0200   20     240/  8/  9 1017.7F
PORT WASHINGTON  0230   20     250/  5/  8 1017.9F
MILWAUKEE LAKESH 0230   24     220/  6/  7   N/A
KENOSHA   LAKESH 0200   22     230/  4/  5 1017.9
$$

TC  - TEMPERATURE IN CELSIUS
VSB - VISIBILITY IN STATUTE MILES
WCI - WIND CHILL INDEX
HX  - HEAT INDEX





USA.gov is the U.S. government's official web portal to all federal, state and local government web resources and services.